Emporia, Virginia, United States (23847)
Lat: 36.69N, Lon: 77.54W
Wx Zone: VAZ087
Local Info
Past Weather Observations for Friday, August 19, 2016

NOTE: This archive is for the closest National Weather Service station to Emporia. Information may differ from the station used for current weather conditions.

Click here for Long-term Archive

Time Weather Temperature Dewpoint Humidity Pressure Winds Precip Visibility
23:55
Fair
72°F / 22°C 72°F / 22°C 100% 29.95 in
(1014 mb)
Calm -
23:35
Fair
72°F / 22°C 72°F / 22°C 100% 29.95 in
(1014 mb)
Calm -
23:15
Fair
70°F / 21°C 70°F / 21°C 100% 29.95 in
(1014 mb)
Calm -
22:55
Fair
70°F / 21°C 70°F / 21°C 100% 29.98 in
(1015 mb)
Calm -
22:35
Fair
72°F / 22°C 70°F / 21°C 94% 29.98 in
(1015 mb)
Calm -
22:15
Fair
72°F / 22°C 72°F / 22°C 100% 29.98 in
(1015 mb)
Calm -
21:55
Fair
72°F / 22°C 72°F / 22°C 100% 29.98 in
(1015 mb)
Calm -
21:35
Fair
73°F / 23°C 72°F / 22°C 94% 29.98 in
(1015 mb)
Calm -
21:15
Fair
72°F / 22°C 72°F / 22°C 100% 29.98 in
(1015 mb)
Calm -
20:55
Fair
73°F / 23°C 72°F / 22°C 94% 29.98 in
(1015 mb)
SE 3.5 mph
(SE 6 kph)
-
20:35
Fair
73°F / 23°C 72°F / 22°C 94% 29.98 in
(1015 mb)
SE 4.6 mph
(SE 7 kph)
-
20:15
Clear
73°F / 23°C 72°F / 22°C 94% 29.98 in
(1015 mb)
E 4.6 mph
(E 7 kph)
- 10SM
19:55
Partly Cloudy
73°F / 23°C 72°F / 22°C 94% 29.95 in
(1014 mb)
E 3.5 mph
(E 6 kph)
- 10SM
19:35
Clear
75°F / 24°C 72°F / 22°C 89% 29.95 in
(1014 mb)
E 4.6 mph
(E 7 kph)
- 10SM
19:15
Clear
77°F / 25°C 72°F / 22°C 83% 29.95 in
(1014 mb)
E 4.6 mph
(E 7 kph)
- 10SM
18:35
Clear
77°F / 25°C 72°F / 22°C 83% 29.95 in
(1014 mb)
SE 3.5 mph
(SE 6 kph)
- 10SM
18:15
Clear
79°F / 26°C 73°F / 23°C 84% 29.95 in
(1014 mb)
Calm -
17:55
Clear
79°F / 26°C 72°F / 22°C 79% 29.95 in
(1014 mb)
Calm -
17:35
Partly Cloudy
81°F / 27°C 70°F / 21°C 70% 29.95 in
(1014 mb)
SE 3.5 mph
(SE 6 kph)
-
17:15
Mostly Cloudy
82°F / 28°C 70°F / 21°C 66% 29.95 in
(1014 mb)
Calm -
16:55
Partly Cloudy
82°F / 28°C 70°F / 21°C 66% 29.95 in
(1014 mb)
Calm -
16:35
Clear
82°F / 28°C 70°F / 21°C 66% 29.95 in
(1014 mb)
SSW 3.5 mph
(SSW 6 kph)
-
16:15
Clear
82°F / 28°C 70°F / 21°C 66% 29.95 in
(1014 mb)
Calm -
15:55
Clear
81°F / 27°C 70°F / 21°C 70% 29.95 in
(1014 mb)
Calm -
15:35
Partly Cloudy
81°F / 27°C 70°F / 21°C 70% 29.95 in
(1014 mb)
SSW 3.5 mph
(SSW 6 kph)
- 10SM
15:15
Mostly Cloudy
81°F / 27°C 70°F / 21°C 70% 29.95 in
(1014 mb)
SSW 3.5 mph
(SSW 6 kph)
-
14:55
Overcast
Drizzle
77°F / 25°C 72°F / 22°C 83% 29.98 in
(1015 mb)
Calm - 7SM
14:35
Overcast
77°F / 25°C 72°F / 22°C 83% 29.98 in
(1015 mb)
Calm - 10SM
14:15
Overcast
77°F / 25°C 72°F / 22°C 83% 29.98 in
(1015 mb)
NW 4.6 mph
(NW 7 kph)
- 10SM
13:55
Mostly Cloudy
77°F / 25°C 72°F / 22°C 83% 29.98 in
(1015 mb)
NW 8.1 mph
(NW 13 kph)
- 10SM
13:35
Partly Cloudy
79°F / 26°C 72°F / 22°C 79% 30.01 in
(1016 mb)
NW 9.2 mph
(NW 15 kph)
- 10SM
13:15
Mostly Cloudy
79°F / 26°C 72°F / 22°C 79% 30.01 in
(1016 mb)
NW 11.5 mph
(NW 19 kph)
- 10SM
12:55
Overcast
Drizzle
79°F / 26°C 70°F / 21°C 74% 30.01 in
(1016 mb)
NW 10.4 mph
(NW 17 kph)
-
12:35
Overcast
81°F / 27°C 72°F / 22°C 74% 30.01 in
(1016 mb)
NW 8.1 mph
(NW 13 kph)
- 10SM
12:15
Overcast
81°F / 27°C 73°F / 23°C 79% 30.01 in
(1016 mb)
NW 5.8 mph
(NW 9 kph)
- 10SM
11:55
Overcast
81°F / 27°C 73°F / 23°C 79% 30.01 in
(1016 mb)
NW 5.8 mph
(NW 9 kph)
-
11:35
Overcast
79°F / 26°C 72°F / 22°C 79% 30.01 in
(1016 mb)
N 3.5 mph
(N 6 kph)
- 10SM
11:15
Overcast
Rain
79°F / 26°C 73°F / 23°C 84% 30.01 in
(1016 mb)
N 3.5 mph
(N 6 kph)
- 10SM
10:55
Overcast
Rain
79°F / 26°C 73°F / 23°C 84% 30.01 in
(1016 mb)
NW 3.5 mph
(NW 6 kph)
-
10:35
Overcast
79°F / 26°C 73°F / 23°C 84% 30.01 in
(1016 mb)
Calm - 10SM
10:15
Overcast
79°F / 26°C 73°F / 23°C 84% 30.01 in
(1016 mb)
Calm - 10SM
09:55
Overcast
79°F / 26°C 73°F / 23°C 84% 30.01 in
(1016 mb)
Calm - 10SM
09:35
Overcast
79°F / 26°C 73°F / 23°C 84% 30.01 in
(1016 mb)
Calm - 10SM
09:15
Overcast
77°F / 25°C 73°F / 23°C 89% 30.01 in
(1016 mb)
SSW 3.5 mph
(SSW 6 kph)
-
08:55
Overcast
77°F / 25°C 73°F / 23°C 89% 30.01 in
(1016 mb)
Calm -
08:35
Overcast
77°F / 25°C 73°F / 23°C 89% 30.01 in
(1016 mb)
Calm -
08:15
Fair
75°F / 24°C 73°F / 23°C 94% 30.01 in
(1016 mb)
Calm -
07:55
Fair
73°F / 23°C 73°F / 23°C 100% 30.01 in
(1016 mb)
NNW 3.5 mph
(NNW 6 kph)
-
07:35
Drizzle
73°F / 23°C 73°F / 23°C 100% 30.01 in
(1016 mb)
Calm -
07:15
Overcast
73°F / 23°C 72°F / 22°C 94% 30.01 in
(1016 mb)
Calm -
06:55
Overcast
73°F / 23°C 72°F / 22°C 94% 30.01 in
(1016 mb)
Calm -
06:35
Overcast
73°F / 23°C 72°F / 22°C 94% 30.01 in
(1016 mb)
Calm -
06:15
Fair
73°F / 23°C 72°F / 22°C 94% 30.01 in
(1016 mb)
Calm -
05:55
Fair
72°F / 22°C 72°F / 22°C 100% 30.01 in
(1016 mb)
Calm -
05:35
Mostly Cloudy
72°F / 22°C 72°F / 22°C 100% 30.01 in
(1016 mb)
Calm -
05:15
Fair
72°F / 22°C 72°F / 22°C 100% 30.01 in
(1016 mb)
Calm -
04:55
Fair
72°F / 22°C 72°F / 22°C 100% 30.01 in
(1016 mb)
Calm -
04:35
Fair
72°F / 22°C 72°F / 22°C 100% 30.01 in
(1016 mb)
Calm -
04:15
Fair
72°F / 22°C 72°F / 22°C 100% 30.01 in
(1016 mb)
Calm -
03:55
Fair
72°F / 22°C 72°F / 22°C 100% 30.01 in
(1016 mb)
Calm -
03:35
Fair
72°F / 22°C 72°F / 22°C 100% 30.01 in
(1016 mb)
Calm -
03:15
Fair
70°F / 21°C 70°F / 21°C 100% 30.01 in
(1016 mb)
Calm -
02:55
Fair
70°F / 21°C 70°F / 21°C 100% 30.01 in
(1016 mb)
Calm -
02:35
Fair
70°F / 21°C 70°F / 21°C 100% 30.01 in
(1016 mb)
Calm -
02:15
Fair
70°F / 21°C 70°F / 21°C 100% 30.01 in
(1016 mb)
Calm -
01:55
Fair
72°F / 22°C 70°F / 21°C 94% 30.01 in
(1016 mb)
Calm -
01:35
Fair
72°F / 22°C 72°F / 22°C 100% 30.01 in
(1016 mb)
Calm -
01:15
Fair
72°F / 22°C 72°F / 22°C 100% 30.01 in
(1016 mb)
Calm -
00:55
Fair
72°F / 22°C 72°F / 22°C 100% 30.01 in
(1016 mb)
Calm 0.01 in
(0.25 mm)
00:35
Fair
72°F / 22°C 72°F / 22°C 100% 30.01 in
(1016 mb)
Calm -
00:15
Fair
72°F / 22°C 72°F / 22°C 100% 30.01 in
(1016 mb)
Calm -
Time Weather Temperature Dewpoint Humidity Pressure Winds Precip Visibility


Weather for websites

WeatherForYou.com, LLC is not responsible for any damages or problems caused by this service. Current weather conditions are obtained from the closest station including government and personal stations which may have varying degrees of accuracy. Weather forecasts are derived from the NOAA NDFD. Like all things, this site belongs to Jesus Christ... He just trusts us to maintain it. If you have any questions or comments email webmaster@weatherforyou.com

Copyright © 2016, WeatherForYou.com LLC. All rights reserved.